Flag for Italy Weather past 2 weeks in Cagliari, Italy

Now
81 °F

Sunny.


Feels Like: 81 °F
Forecast: 61 / 84 °F
Wind: 8 mph from Northwest

Location: Cagliari / Elmas

Current Time: May 6, 2015 at 5:33:56 PM

Latest Report: May 6, 2015 at 4:50 PM


Visibility: 10 mi

Pressure: 29.92 "Hg

Humidity: 45%

Dew point: 57 °F

Location of CagliariLocation

Historic Weather in Cagliari — Graph

°F

Cagliari temperature yesterday

Maximum temperature yesterday: 88 °F (at 5:50 PM)
Minimum temperature yesterday: 64 °F (at 6:20 AM)
Average temperature yesterday: 73 °F

Past Weeks' High & Low Weather Summary

 TemperatureHumidityPressure
High88 °F (May 5, 5:50 PM)100% (Apr 24, 4:50 AM)30.27 "Hg (Apr 24, 4:50 AM)
Low46 °F (Apr 22, 4:50 AM)34% (May 3, 3:50 PM)29.71 "Hg (Apr 27, 2:50 PM)
Average65 °F73%29.99 "Hg
* Reported Apr 21 4:20 PM — May 6 4:20 PM, Cagliari, Weather by CustomWeather, © 2015

Note: Actual official high and low records may vary slightly from our data, if they occured in-between our weather recording intervals... More about our weather records

Advertising

Cagliari weather history for previous 24 hours

 ConditionsComfort  
Time TempWeatherWind HumidityBarometerVisibility
4:20 PM
Wed, May 6
81 °FPassing clouds.7 mph45%29.92 "HgN/A
3:50 PM81 °FSunny.7 mph42%29.92 "Hg10 mi
3:20 PM81 °FPassing clouds.9 mph42%29.95 "HgN/A
2:50 PM81 °FSunny.13 mph42%29.95 "Hg10 mi
2:20 PM79 °FPassing clouds.12 mph51%29.95 "HgN/A
1:50 PM81 °FPassing clouds.8 mph51%29.95 "HgN/A
1:20 PM77 °FPassing clouds.6 mph61%29.95 "HgN/A
12:50 PM75 °FPassing clouds.6 mph61%29.95 "HgN/A
12:20 PM75 °FPassing clouds.5 mph61%29.95 "HgN/A
11:50 AM77 °FPassing clouds.6 mph61%29.95 "HgN/A
11:20 AM75 °FPassing clouds.7 mph65%29.98 "HgN/A
10:50 AM77 °FPassing clouds.9 mph61%29.95 "HgN/A
10:20 AM75 °FSunny.10 mph65%29.95 "Hg10 mi
9:50 AM73 °FPassing clouds.10 mph69%29.95 "HgN/A
9:20 AM73 °FSunny.12 mph69%29.92 "Hg10 mi
8:50 AM70 °FPassing clouds.5 mph78%29.92 "HgN/A
8:20 AM68 °FPassing clouds.6 mph83%29.92 "HgN/A
7:50 AM66 °FSunny.5 mph83%29.89 "Hg10 mi
7:20 AM66 °FSunny.8 mph83%29.89 "Hg10 mi
6:50 AM64 °FPassing clouds.7 mph94%29.89 "HgN/A
6:20 AM64 °FClear.8 mph94%29.86 "Hg10 mi
5:50 AM64 °FClear.9 mph94%29.86 "Hg10 mi
4:50 AM64 °FClear.10 mph94%29.89 "Hg10 mi
4:20 AM64 °FClear.9 mph94%29.89 "Hg10 mi
3:20 AM64 °FClear.10 mph88%29.92 "Hg10 mi
2:50 AM64 °FClear.8 mph88%29.92 "Hg10 mi
2:20 AM64 °FClear.9 mph88%29.92 "Hg10 mi
1:50 AM64 °FClear.7 mph88%29.92 "Hg10 mi
1:20 AM64 °FPassing clouds.5 mph88%29.95 "HgN/A
12:50 AM66 °FPassing clouds.5 mph83%29.95 "HgN/A
12:20 AM66 °FClear.6 mph83%29.92 "Hg10 mi
11:50 PM
Tue, May 5
66 °FClear.7 mph83%29.92 "Hg10 mi
11:20 PM66 °FPassing clouds.6 mph83%29.92 "HgN/A
10:50 PM68 °FPassing clouds.5 mph78%29.92 "HgN/A
10:20 PM70 °FClear.9 mph73%29.89 "Hg10 mi
9:50 PM70 °FClear.12 mph73%29.89 "Hg10 mi
9:20 PM72 °FPassing clouds.9 mph73%29.89 "HgN/A
8:50 PM72 °FSunny.12 mph73%29.89 "Hg10 mi
8:20 PM73 °FSunny.9 mph69%29.89 "Hg10 mi
7:50 PM79 °FSunny.12 mph61%29.86 "Hg10 mi
7:20 PM84 °FPassing clouds.12 mph51%29.86 "HgN/A
6:50 PM88 °FSunny.2 mph49%29.86 "Hg10 mi
6:20 PM86 °FPassing clouds.3 mph52%29.86 "HgN/A
5:50 PM88 °FPassing clouds.6 mph46%29.86 "HgN/A
5:20 PM86 °FSunny.8 mph46%29.86 "Hg10 mi
Weather by CustomWeather, © 2015

See weather overviewHow to use our weather pages